9M4GHZ-13 Weather Reports


Display with metric or nautical units.
time (UTC)temp
F
wind
direction
speed
MPH
gust
MPH
rain 1hr
in
rain 24hr
in
rain mn
in
humidity
%
barometer
mb
20260504175004 77 180 0.0 1.0 0.00 0.00 0.00 92 1009.6
20260504174005 77 180 2.0 2.0 0.00 0.00 0.00 92 1009.6
20260504173005 77 157 1.0 2.0 0.00 0.00 0.00 92 1009.9
20260504172003 77 135 0.0 1.0 0.00 0.00 0.00 92 1010.1
20260504171005 77 202 0.0 1.0 0.00 0.00 0.00 92 1010.4
20260504151005 78 135 0.0 2.0 0.00 0.00 0.00 87 1010.4
20260504141005 78 135 2.0 3.0 0.00 0.00 0.00 86 1010.2
20260504082004 88 337 4.0 6.0 0.00 0.00 0.00 70 1006.7
20260504081004 89 315 6.0 9.0 0.00 0.00 0.00 69 1006.5
20260504050005 82 247 1.0 2.0 0.00 0.00 0.00 80 1009.3
20260504045004 82 135 1.0 1.0 0.00 0.00 0.00 81 1009.5
20260504044004 82 157 1.0 3.0 0.00 0.00 0.00 82 1009.5
20260504043005 83 157 2.0 3.0 0.00 0.00 0.00 77 1009.9
20260504042004 82 22 0.0 1.0 0.00 0.00 0.00 82 1010.2
20260504041005 85 22 1.0 2.0 0.00 0.00 0.00 83 1010.3
20260504040005 86 315 3.0 4.0 0.00 0.00 0.00 76 1010.2
20260504035004 87 315 7.0 10.0 0.00 0.00 0.00 71 1010.2
20260504034005 88 292 7.0 9.0 0.00 0.00 0.00 69 1010.3
20260504033005 88 292 3.0 6.0 0.00 0.00 0.00 70 1010.2
20260504032004 89 292 2.0 3.0 0.00 0.00 0.00 68 1010.4
20260504031004 88 157 1.0 2.0 0.00 0.00 0.00 69 1010.4
20260504030007 89 180 1.0 3.0 0.00 0.00 0.00 69 1010.6
20260504025003 87 202 3.0 6.0 0.00 0.00 0.00 73 1010.9
20260504024005 86 157 5.0 6.0 0.00 0.00 0.00 75 1010.9
20260504023005 86 157 4.0 6.0 0.00 0.00 0.00 74 1011.0
20260504022004 86 135 4.0 8.0 0.00 0.00 0.00 76 1011.1
20260504021005 86 157 3.0 6.0 0.00 0.00 0.00 76 1011.2
20260504020004 86 202 3.0 4.0 0.00 0.00 0.00 76 1011.2
20260504015003 86 247 3.0 4.0 0.00 0.00 0.00 77 1011.0
20260504014005 85 247 3.0 4.0 0.00 0.00 0.00 78 1011.1
20260504013005 84 180 4.0 8.0 0.00 0.00 0.00 78 1010.9
20260504012005 85 135 3.0 3.0 0.00 0.00 0.00 79 1011.0
20260504011005 84 247 4.0 6.0 0.00 0.00 0.00 81 1011.0
20260504010004 83 225 1.0 2.0 0.00 0.00 0.00 82 1010.8
20260504005004 84 202 3.0 6.0 0.00 0.00 0.00 82 1010.7
20260504004005 84 202 2.0 4.0 0.00 0.00 0.00 81 1010.7
20260504003005 83 180 3.0 6.0 0.00 0.00 0.00 83 1010.4
20260504002004 83 157 1.0 3.0 0.00 0.00 0.00 84 1010.1
20260504001004 82 157 0.0 1.0 0.00 0.00 0.00 85 1009.8
20260504000006 82 112 0.0 0.0 0.00 0.00 0.00 86 1009.7
20260503235003 80 135 0.0 1.0 0.00 0.00 0.00 90 1009.2
20260503234005 79 90 0.0 1.0 0.00 0.00 0.00 93 1009.0
20260503233005 79 112 2.0 2.0 0.00 0.00 0.00 93 1008.9
20260503232003 78 90 0.0 1.0 0.00 0.00 0.00 94 1008.9
20260503231005 78 90 0.0 2.0 0.00 0.00 0.00 94 1008.8
20260503230005 78 67 1.0 2.0 0.00 0.00 0.00 94 1008.6
20260503225003 78 112 1.0 2.0 0.00 0.00 0.00 94 1008.6
20260503224004 78 112 1.0 2.0 0.00 0.00 0.00 95 1008.3
20260503223005 78 135 0.0 1.0 0.00 0.00 0.00 94 1008.6
20260503222004 78 157 0.0 1.0 0.00 0.00 0.00 95 1008.3
20260503221004 78 225 0.0 1.0 0.00 0.00 0.00 94 1008.2
20260503220005 78 157 0.0 1.0 0.00 0.00 0.00 94 1008.3
20260503215003 78 135 0.0 1.0 0.00 0.00 0.00 94 1008.3
20260503214004 78 180 1.0 2.0 0.00 0.00 0.00 94 1008.6
20260503213005 78 202 0.0 1.0 0.00 0.00 0.00 93 1008.5
20260503212004 78 157 2.0 4.0 0.00 0.00 0.00 93 1008.7
20260503211005 78 135 0.0 1.0 0.00 0.00 0.00 94 1008.6
20260503210005 78 157 2.0 3.0 0.00 0.00 0.00 93 1008.5
20260503205004 78 225 0.0 1.0 0.00 0.00 0.00 93 1008.4
20260503204005 78 247 1.0 2.0 0.00 0.00 0.00 93 1008.4
20260503203005 78 202 2.0 3.0 0.00 0.00 0.00 92 1008.4
20260503202004 78 157 1.0 2.0 0.00 0.00 0.00 92 1008.2
20260503201005 78 202 1.0 2.0 0.00 0.00 0.00 91 1008.4
20260503195003 79 202 3.0 6.0 0.00 0.00 0.00 90 1008.5
20260503194004 79 270 0.0 2.0 0.00 0.00 0.00 90 1008.2
20260503193004 79 225 0.0 2.0 0.00 0.00 0.00 90 1008.3
20260503192004 79 225 3.0 4.0 0.00 0.00 0.00 91 1008.3
20260503191005 79 180 3.0 4.0 0.00 0.00 0.00 91 1008.3
20260503190006 79 157 4.0 8.0 0.00 0.00 0.00 91 1008.6
20260503185003 80 157 3.0 4.0 0.00 0.00 0.00 92 1008.5
20260503184004 80 157 5.0 6.0 0.00 0.00 0.00 92 1008.8
20260503183005 79 247 4.0 6.0 0.00 0.00 0.00 93 1008.5
20260503182004 79 202 3.0 3.0 0.00 0.00 0.00 93 1008.7
20260503181005 79 112 0.0 1.0 0.00 0.00 0.00 93 1008.6
20260503180005 80 202 1.0 2.0 0.00 0.00 0.00 92 1008.8